Home   Weather   Río Gallegos   Past weeks

Flag for Argentina Past Weather in Río Gallegos, Santa Cruz, Argentina — Yesterday and Last 2 Weeks

68 °F


Feels Like: 68 °F
Forecast: N/A
Wind: 20 mph from North

Location: Rio Gallegos Aerodrome

Current Time: Oct 23, 2016 at 7:07:13 PM

Latest Report: Oct 23, 2016 at 6:00 PM

Visibility: 10 mi

Pressure: 29.95 "Hg

Humidity: 35%

Dew Point: 39 °F

Location of Río GallegosLocation

Past Weather in Río Gallegos — Graph


Río Gallegos Temperature Yesterday

Maximum temperature yesterday: 61 °F (at 3:00 PM)
Minimum temperature yesterday: 36 °F (at 6:00 AM)
Average temperature yesterday: 49 °F

High & Low Weather Summary for the Past Weeks

High72 °F (Oct 23, 2:00 PM)100% (Oct 14, 7:00 AM)30.30 "Hg (Oct 14, 7:00 AM)
Low30 °F (Oct 9, 7:00 AM)15% (Oct 19, 3:00 PM)28.80 "Hg (Oct 12, 7:00 AM)
Average48 °F52%29.70 "Hg
* Reported Oct 8 6:00 PM — Oct 23 6:00 PM, Río Gallegos, Weather by CustomWeather, © 2016

Note: Actual official high and low records may vary slightly from our data, if they occured in-between our weather recording intervals... More about our weather records


Río Gallegos Weather History for the Previous 24 Hours

Scroll right to see more
Time TempWeatherWind HumidityBarometerVisibility
6:00 PM
Sun, Oct 23
68 °FSunny.20 mph35%29.95 "Hg10 mi
5:00 PM70 °FSunny.21 mph31%29.95 "Hg10 mi
4:00 PM72 °FSunny.23 mph29%29.95 "Hg10 mi
2:00 PM72 °FSunny.15 mph17%29.98 "Hg10 mi
1:00 PM70 °FSunny.14 mph15%30.01 "Hg10 mi
12:00 PM66 °FSunny.16 mph22%30.04 "Hg10 mi
10:00 AM59 °FSunny.14 mph36%30.07 "Hg10 mi
9:00 AM50 °FSunny.8 mph50%30.07 "Hg10 mi
8:00 AM43 °FSunny.No wind66%30.09 "Hg10 mi
7:00 AM37 °FSunny.5 mph81%30.09 "Hg10 mi
6:00 AM36 °FClear.7 mph81%30.09 "Hg10 mi
5:00 AM36 °FClear.8 mph87%30.09 "Hg10 mi
4:00 AM37 °FClear.7 mph87%30.09 "Hg10 mi
3:00 AM37 °FClear.5 mph87%30.07 "Hg10 mi
2:00 AM39 °FClear.8 mph81%30.09 "Hg10 mi
1:00 AM43 °FPassing clouds.7 mph71%30.07 "HgN/A
12:00 AM46 °FClear.10 mph62%30.04 "Hg10 mi
11:00 PM
Sat, Oct 22
46 °FClear.No wind62%30.04 "Hg10 mi
10:00 PM50 °FClear.13 mph50%30.01 "Hg10 mi
9:00 PM52 °FClear.10 mph47%29.98 "Hg10 mi
8:00 PM54 °FSunny.13 mph38%29.95 "Hg10 mi
7:00 PM59 °FBroken clouds.22 mph29%29.92 "HgN/A
Weather by CustomWeather, © 2016

See weather overviewHow to use our weather pages